Weather in Bazkovskaya

Russia / Rostov Oblast     49°35′38″N   41°43′39″E
temp.,
°C
wind,
m/s
gust,
m/s
humid.,
%
clouds,
%
prec.,
mm/h
press.,
hPa
HPBL,
m
11 may, tue
tue1100:00+6e5994100 0.0 1011571
03:00+6e5992100 0.1 1011492
06:00+6e61193100 0.1 1013660
09:00+6e91390100 0.3 10141030
12:00+6e101593100 0.3 10161154
15:00+6ese91793100 0.6 10171264
18:00+9ese91783100 1.8 10191578
21:00+8e6138695 3.1 1021522
12 may, wed
wed1200:00+6ene31192100 0.1 1021311
03:00+7ene51484100 0.1 1020326
06:00+8ene51282100 0.0 1020387
09:00+11ese5975100 0.3 1021636
12:00+16se7105598 0.4 10191891
15:00+18se71052100 0.8 10182120
18:00+17s4762100 0.2 1018452
21:00+12ese2374100 0.2 101818
13 may, thu
thu1300:00+11ese357585 0.0 101771
03:00+10ene348543 0.0 101761
06:00+11ene3584100 0.0 1016115
09:00+18e33675 0.0 1016470
12:00+22s344912 0.0 10151590
15:00+24sse354670 0.0 10152233
18:00+20se226099 0.0 101517
21:00+17se2271100 0.0 101611
14 may, fri
fri1400:00+16ese2277100 0.0 101616
03:00+15ese3384100 0.0 101635
06:00+16ese48815 0.0 1016170
09:00+23ese58595 0.0 1015564
12:00+26se67495 0.0 10151102
15:00+27se6744100 0.0 10141275
18:00+25sse5105881 0.0 1014396
21:00+20se34715 0.0 101344
15 may, sat
sat1500:00+19se71654100 0.0 1013361
03:00+17sse71554100 0.0 1013311
06:00+16sse716552 0.0 1014335
09:00+21sse81445100 0.0 1014624
12:00+25s711381 0.0 10141031
15:00+26s7103797 0.0 10141318
18:00+24ssw475432 0.0 1013265
21:00+20sse2260100 0.0 101315